TimeEDT,TemperatureF,Dew PointF,Humidity,Sea Level PressureIn,VisibilityMPH,Wind Direction,Wind SpeedMPH,Gust SpeedMPH,PrecipitationIn,Events,Conditions,WindDirDegrees,DateUTC
12:15 AM,50.2,32.9,52,29.99,10.0,SSW,11.5,-,N/A,,Clear,200,2014-04-10 04:15:00
12:35 AM,50.2,32.9,52,30.00,10.0,SSW,10.4,-,N/A,,Clear,210,2014-04-10 04:35:00
12:55 AM,50.0,33.3,53,30.00,10.0,SSW,11.5,-,N/A,,Clear,210,2014-04-10 04:55:00
1:15 AM,49.6,33.4,54,29.99,10.0,SSW,9.2,-,N/A,,Clear,210,2014-04-10 05:15:00
1:35 AM,49.1,33.4,55,29.99,10.0,SSW,10.4,-,N/A,,Clear,210,2014-04-10 05:35:00
1:55 AM,49.1,33.1,54,29.99,10.0,SSW,11.5,-,N/A,,Clear,210,2014-04-10 05:55:00
2:15 AM,49.1,32.9,54,29.99,10.0,SSW,10.4,-,N/A,,Clear,210,2014-04-10 06:15:00
2:35 AM,48.7,32.9,54,29.99,10.0,SSW,12.7,17.3,N/A,,Clear,210,2014-04-10 06:35:00
2:55 AM,49.1,32.5,53,29.98,10.0,SSW,10.4,-,N/A,,Clear,200,2014-04-10 06:55:00
3:15 AM,48.7,32.4,53,29.97,10.0,SSW,11.5,-,N/A,,Clear,200,2014-04-10 07:15:00
3:35 AM,49.3,32.0,51,29.97,10.0,SSW,12.7,-,N/A,,Clear,200,2014-04-10 07:35:00
3:55 AM,48.7,32.0,52,29.96,10.0,SSW,13.8,19.6,N/A,,Clear,200,2014-04-10 07:55:00
4:15 AM,48.7,32.0,52,29.95,10.0,South,11.5,-,N/A,,Clear,190,2014-04-10 08:15:00
4:35 AM,48.4,32.4,54,29.95,10.0,South,11.5,-,N/A,,Clear,190,2014-04-10 08:35:00
4:55 AM,47.7,32.4,55,29.94,10.0,SSW,12.7,-,N/A,,Clear,200,2014-04-10 08:55:00
5:15 AM,48.2,32.4,54,29.94,10.0,SSW,11.5,-,N/A,,Clear,200,2014-04-10 09:15:00
5:35 AM,48.4,32.4,54,29.94,10.0,SSW,12.7,-,N/A,,Clear,200,2014-04-10 09:35:00
5:55 AM,48.0,32.9,56,29.94,10.0,SSW,11.5,-,N/A,,Clear,200,2014-04-10 09:55:00
6:15 AM,47.3,32.9,57,29.94,10.0,South,10.4,-,N/A,,Clear,190,2014-04-10 10:15:00
6:35 AM,46.4,32.9,59,29.94,10.0,South,8.1,-,N/A,,Clear,190,2014-04-10 10:35:00
6:55 AM,46.4,33.1,60,29.94,10.0,South,10.4,-,N/A,,Clear,190,2014-04-10 10:55:00
7:15 AM,46.4,33.1,60,29.93,10.0,South,10.4,-,N/A,,Clear,190,2014-04-10 11:15:00
7:35 AM,46.6,33.1,59,29.93,10.0,South,10.4,-,N/A,,Clear,190,2014-04-10 11:35:00
7:55 AM,46.8,33.3,59,29.93,10.0,South,11.5,-,N/A,,Clear,180,2014-04-10 11:55:00
8:15 AM,47.3,33.4,59,29.92,10.0,South,11.5,16.1,N/A,,Clear,190,2014-04-10 12:15:00
8:35 AM,48.9,34.0,56,29.92,10.0,South,11.5,-,N/A,,Clear,190,2014-04-10 12:35:00
8:55 AM,50.7,34.5,54,29.92,10.0,South,15.0,-,N/A,,Clear,190,2014-04-10 12:55:00
9:15 AM,53.1,35.1,50,29.91,10.0,South,17.3,21.9,N/A,,Clear,190,2014-04-10 13:15:00
9:35 AM,54.3,34.9,48,29.90,10.0,South,19.6,25.3,N/A,,Clear,190,2014-04-10 13:35:00
9:55 AM,56.5,35.1,45,29.90,10.0,SSW,17.3,24.2,N/A,,Clear,200,2014-04-10 13:55:00
10:15 AM,58.3,35.4,42,29.89,10.0,South,19.6,26.5,N/A,,Clear,190,2014-04-10 14:15:00
10:35 AM,60.6,35.8,40,29.87,10.0,SSW,23.0,34.5,N/A,,Scattered Clouds,200,2014-04-10 14:35:00
10:55 AM,62.4,35.1,36,29.87,10.0,SSW,27.6,33.4,N/A,,Scattered Clouds,200,2014-04-10 14:55:00
11:15 AM,64.2,36.1,35,29.86,10.0,SSW,19.6,28.8,N/A,,Clear,210,2014-04-10 15:15:00
11:35 AM,64.8,35.1,33,29.86,10.0,SSW,28.8,41.4,N/A,,Scattered Clouds,210,2014-04-10 15:35:00
11:55 AM,65.8,36.5,34,29.87,10.0,SW,25.3,34.5,N/A,,Clear,220,2014-04-10 15:55:00
12:15 PM,66.9,36.7,33,29.86,10.0,SSW,23.0,32.2,N/A,,Clear,200,2014-04-10 16:15:00
12:35 PM,68.5,38.5,33,29.84,10.0,SSW,20.7,27.6,N/A,,Clear,210,2014-04-10 16:35:00
12:55 PM,68.2,38.1,33,29.83,10.0,SSW,25.3,32.2,N/A,,Clear,200,2014-04-10 16:55:00
1:15 PM,69.4,38.1,32,29.83,10.0,SSW,24.2,33.4,N/A,,Clear,210,2014-04-10 17:15:00
1:35 PM,69.8,38.7,32,29.83,10.0,SSW,27.6,32.2,N/A,,Clear,210,2014-04-10 17:35:00
1:55 PM,69.8,38.8,32,29.83,10.0,SW,27.6,36.8,N/A,,Clear,220,2014-04-10 17:55:00
2:15 PM,70.7,38.7,31,29.83,10.0,SW,23.0,35.7,N/A,,Clear,230,2014-04-10 18:15:00
2:35 PM,70.9,38.7,31,29.82,10.0,SW,28.8,33.4,N/A,,Clear,230,2014-04-10 18:35:00
2:55 PM,71.2,39.0,31,29.82,10.0,SW,24.2,34.5,N/A,,Clear,230,2014-04-10 18:55:00
3:15 PM,71.6,39.6,31,29.81,10.0,WSW,23.0,33.4,N/A,,Clear,240,2014-04-10 19:15:00
3:35 PM,72.1,40.5,32,29.81,10.0,WSW,23.0,33.4,N/A,,Clear,240,2014-04-10 19:35:00
3:55 PM,73.0,41.0,31,29.82,10.0,WSW,19.6,32.2,N/A,,Clear,240,2014-04-10 19:55:00
4:15 PM,71.6,40.8,33,29.81,10.0,WSW,19.6,31.1,N/A,,Clear,250,2014-04-10 20:15:00
4:35 PM,71.1,41.5,34,29.81,10.0,WSW,18.4,26.5,N/A,,Clear,240,2014-04-10 20:35:00
4:55 PM,71.1,41.7,35,29.81,10.0,WSW,16.1,19.6,N/A,,Scattered Clouds,250,2014-04-10 20:55:00
5:15 PM,72.9,42.8,34,29.80,10.0,WSW,15.0,23.0,N/A,,Scattered Clouds,250,2014-04-10 21:15:00
5:35 PM,72.1,42.1,34,29.81,10.0,WSW,16.1,24.2,N/A,,Mostly Cloudy,240,2014-04-10 21:35:00
5:55 PM,70.9,42.6,36,29.82,10.0,West,13.8,20.7,N/A,,Overcast,260,2014-04-10 21:55:00
6:15 PM,70.2,43.5,38,29.83,10.0,West,13.8,-,N/A,,Overcast,260,2014-04-10 22:15:00
6:35 PM,71.4,44.4,38,29.83,10.0,West,11.5,20.7,N/A,,Overcast,270,2014-04-10 22:35:00
6:55 PM,69.1,43.9,40,29.85,10.0,West,15.0,18.4,N/A,,Overcast,270,2014-04-10 22:55:00
7:15 PM,68.5,43.9,41,29.85,10.0,West,9.2,-,N/A,,Mostly Cloudy,260,2014-04-10 23:15:00
7:35 PM,67.5,44.2,43,29.85,10.0,West,5.8,-,N/A,,Overcast,260,2014-04-10 23:35:00
7:55 PM,66.6,45.0,46,29.86,10.0,West,8.1,-,N/A,,Overcast,260,2014-04-10 23:55:00
8:15 PM,65.3,45.1,48,29.85,10.0,WSW,4.6,-,N/A,,Overcast,240,2014-04-11 00:15:00
8:35 PM,64.6,45.1,49,29.86,10.0,WSW,3.5,-,N/A,,Overcast,240,2014-04-11 00:35:00
8:55 PM,63.5,45.5,52,29.87,10.0,West,3.5,-,N/A,,Overcast,270,2014-04-11 00:55:00
9:15 PM,64.6,46.2,51,29.88,10.0,NW,9.2,-,N/A,Rain,Light Rain,310,2014-04-11 01:15:00
9:35 PM,61.5,48.9,63,29.92,7.0,NW,15.0,23.0,N/A,Rain,Rain,310,2014-04-11 01:35:00
10:15 PM,56.3,49.3,77,29.94,5.0,WSW,3.5,-,0.08,Rain,Heavy Rain,250,2014-04-11 02:15:00
10:35 PM,55.8,49.5,79,29.94,10.0,South,6.9,-,0.10,Rain,Rain,190,2014-04-11 02:35:00
10:55 PM,55.0,50.5,85,29.92,7.0,Calm,Calm,-,0.11,Rain,Light Rain,0,2014-04-11 02:55:00
11:15 PM,54.7,50.5,86,29.92,10.0,Calm,Calm,-,N/A,,Overcast,0,2014-04-11 03:15:00
11:35 PM,54.7,50.9,87,29.94,7.0,Calm,Calm,-,N/A,,Light Drizzle,0,2014-04-11 03:35:00
11:55 PM,54.5,50.4,86,29.95,10.0,NNW,10.4,-,N/A,,Scattered Clouds,340,2014-04-11 03:55:00